User: anonymous   Login
Location: Ash Swamp
(41.5170°N, 74.6157°W)
Time: 13:35:04
(UTC+00:00)
Language:

Cosmos 1140 Rocket - Orbit

View from above orbital plane
View from above orbital plane
View from above satellite
View from above satellite

Ground track
Ground track

The orbit data is extracted from the following two-line orbital elements,

1 11574U 79089B   20274.97727229  .00000060  00000-0  26893-4 0  9999
2 11574  74.0704 160.5316 0014993 121.5063 238.7560 14.40767249150212
Epoch (UTC): 30 September 2020 23:27:16
Eccentricity: 0.0014993
inclination: 74.0704°
perigee height: 745 km
apogee height: 766 km
right ascension of ascending node: 160.5316°
argument of perigee: 121.5063°
revolutions per day: 14.40767249
mean anomaly at epoch: 238.7560°
orbit number at epoch: 15021

The dashed part of the orbit path shows where the satellite is in the earth's shadow,  

DLR